Regional Weather Roundup
Issued by NWS Newport/Morehead, NC

Current Version | Previous Version | Graphics & Text | Print | Product List | Glossary Off
Versions: 1 2 3 4 5 6 7 8 9 10 11 12 13 14 15 16 17 18 19 20 21 22 23 24 25 26 27 28 29 30 31 32 33 34 35 36 37 38 39 40 41 42 43 44 45 46 47 48 49 50

000
ASUS42 KMHX 220325
RWRMHX
WEATHER ROUNDUP FOR EASTERN NORTH CAROLINA
NATIONAL WEATHER SERVICE NEWPORT/MOREHEAD CITY NC
1000 PM EST SAT JAN 21 2017

NOTE: "FAIR" INDICATES FEW OR NO CLOUDS BELOW 12,000 FEET
WITH NO SIGNIFICANT WEATHER AND/OR OBSTRUCTIONS TO VISIBILITY

NCZ015>017-031-032-045>047-102-103-220400-
NORTH COAST

CITY           SKY/WX    TMP DP  RH WIND       PRES   REMARKS
EDENTON        DRIZZLE   53  52  95 E10       29.72F
ELIZABETH CITY CLOUDY    51  50  96 E9        29.73F
KITTY HAWK     NOT AVBL
MANTEO         RAIN      53  53 100 SE9       29.75F

$$

NCZ045>047-081-094-103-104-220400-
CENTRAL COAST

CITY           SKY/WX    TMP DP  RH WIND       PRES   REMARKS
FRISCO         CLOUDY    63  62  97 SE5       29.75F FOG

$$

NCZ095-097-098-100-101-220400-
SOUTHERN COAST

CITY           SKY/WX    TMP DP  RH WIND       PRES   REMARKS
BEAUFORT       CLOUDY    57  56  96 E3        29.72F
CEDAR ISLAND   NOT AVBL
JACKSONVILLE   CLOUDY    63  63 100 SE10      29.64F
PINEY ISLAND   CLOUDY   N/A N/A N/A SE3       29.72F
WILMINGTON     CLOUDY    65  64  97 S10       29.64F


$$

NCZ011>013-027>030-043-044-078>080-089-090>093-098-220400-
COASTAL PLAIN

CITY           SKY/WX    TMP DP  RH WIND       PRES   REMARKS
AHOSKIE        DRIZZLE   51  51  98 E3        29.71F
CLINTON        MOCLDY    65  63  93 CALM      29.67R
ELIZABETHTOWN  CLOUDY    64  64 100 E3        29.65F
GOLDSBORO      CLOUDY    59  59 100 E10       29.62F
GREENVILLE     CLOUDY    55  55 100 E3        29.72F
HAVELOCK       LGT RAIN  55  53  93 SE8       29.72F
KENANSVILLE    CLOUDY    66  63  88 S6        29.65R
KINSTON        NOT AVBL
NEW BERN       LGT RAIN  55  53  93 SE7       29.71F
RICHLANDS      MOCLDY    63  63 100 VRB5      29.65F
ROCKY MOUNT    CLOUDY    55  55 100 VRB3      29.68F FOG
WASHINGTON     DRIZZLE   56  56  97 NE6         N/A
WHITEVILLE     CLOUDY    63  62  96 S9        29.67S

$$

AMZ130-135-150-152-154-156-158-170-250-252-270-ANZ085-086-088-633-658-670-220400-
MARINE OBSERVATIONS

STATION/POSITION TIME  TEMP    WIND        PRES    WAVE   SWELL
                       AIR SEA DIR/SP/G            HT/PER HT/PER
                 (UTC) (F)     (DEG/KT/KT) (MB)    (FT/S) (FT/S)
CHESAPEAKE LIGHT NOT AVBL
64 E VA BEACH    0250   59 57  100/  8/  8 1007.8    3/12   3/12
DUCK             0300   48 46  110/  6/  6 1006.6
2 E DUCK         0300      47                N/A     2/11   2/11
OREGON INLET     0300           90/  5/  7 1007.4
13E OREGON INLT  NOT AVBL
HATTERAS CG      0300   63 54  170/  8/ 11 1006.7
DIAMOND BUOY     0250   70 73  170/ 19/ 25 1007.0    5/ 4   3/11
CAPE LOOKOUT     0300   65     190/  7/  8 1006.3
BEAUFORT LAB     0300   56 52  150/  2/  3 1005.4
30 SE NEW RVR IN 0308   63 67  200/ 10/ 16 1006.5
30 SE NEW RVR IN 0313      67                N/A     4/11   2/11
27 SE WRIGHTSVLE 0308   70 71  200/ 12/ 17 1005.8
5 SE WRIGHTSVLE  0308   59     150/ 21/ 31 1003.1
225 S CAPE HAT   0250   72 71  200/ 12/ 16 1010.8    5/11   3/11
41 SE CHARLESTON 0250   66 69  150/ 19/ 25 1004.1    4/ 6   2/11

$$



USA.gov is the U.S. government's official web portal to all federal, state and local government web resources and services.